Regional Weather Roundup
Issued by NWS

Home | Current Version | Previous Version | Text Only | Print | Product List | Glossary On
Versions: 1 2 3 4 5 6 7 8 9 10 11 12 13 14 15 16 17 18 19 20 21 22 23 24 25 26 27 28 29 30 31 32 33 34 35 36 37 38 39 40 41 42 43 44 45 46 47 48 49 50
896
ASUS43 KBIS 251602
RWRND

NORTH DAKOTA REGIONAL WEATHER ROUNDUP
NATIONAL WEATHER SERVICE BISMARCK ND
1100 AM CDT SUN JUN 25 2017

NOTE: "FAIR" INDICATES FEW OR NO CLOUDS BELOW 12,000 FEET WITH NO
SIGNIFICANT WEATHER AND/OR OBSTRUCTIONS TO VISIBILITY.


NDZ001>003-009>011-017-251700-
NORTHWEST NORTH DAKOTA

CITY           SKY/WX    TMP DP  RH WIND       PRES   REMARKS
WILLISTON      SUNNY     62  48  60 S3        30.28S
MINOT          CLOUDY    61  46  57 NW9       30.23F
MINOT AFB      CLOUDY    59  46  60 N6        30.23F
$$

NDZ018>021-031>035-040>046-251700-
SOUTHWEST NORTH DAKOTA

CITY           SKY/WX    TMP DP  RH WIND       PRES   REMARKS
BISMARCK       CLOUDY    55  41  59 S6        30.28F
DICKINSON      MOSUNNY   63  33  32 NE8       30.27S
GARRISON         N/A     55  50  83 W6        30.25F
HETTINGER ARPT SUNNY     71  33  24 W13       30.27F
$$

NDZ004>008-012>016-024-026-027-054-251700-
NORTHEAST NORTH DAKOTA

CITY           SKY/WX    TMP DP  RH WIND       PRES   REMARKS
GRAND FORKS    PTSUNNY   59  46  62 N8        30.22F
GRND FRKS AFB  MOSUNNY   60  44  56 N10       30.23F
DEVILS LAKE    PTSUNNY   59  43  55 NW9       30.25F
$$

NDZ022-023-025-028>030-036>039-047>053-251700-
SOUTHEAST NORTH DAKOTA

CITY           SKY/WX    TMP DP  RH WIND       PRES   REMARKS
FARGO          MOSUNNY   63  43  48 NW16      30.23F
JAMESTOWN      CLOUDY    61  45  55 NW10      30.26S
$$





USA.gov is the U.S. government's official web portal to all federal, state and local government web resources and services.